TimeEST,TemperatureF,Dew PointF,Humidity,Sea Level PressureIn,VisibilityMPH,Wind Direction,Wind SpeedMPH,Gust SpeedMPH,PrecipitationIn,Events,Conditions,WindDirDegrees,DateUTC
12:54 AM,50.0,37.9,63,30.22,10.0,WSW,8.1,-,N/A,,Clear,250,2011-11-08 05:54:00
1:54 AM,48.0,39.0,71,30.22,10.0,SW,6.9,-,N/A,,Clear,230,2011-11-08 06:54:00
2:54 AM,48.9,39.0,69,30.20,10.0,WSW,6.9,-,N/A,,Clear,250,2011-11-08 07:54:00
3:54 AM,48.2,41.0,76,30.21,10.0,West,8.1,-,N/A,,Clear,270,2011-11-08 08:54:00
4:54 AM,48.2,42.8,82,30.22,10.0,WNW,9.2,-,N/A,,Clear,300,2011-11-08 09:54:00
5:54 AM,48.9,43.0,80,30.25,10.0,West,6.9,-,N/A,,Clear,280,2011-11-08 10:54:00
6:54 AM,48.9,44.1,83,30.26,10.0,WNW,4.6,-,N/A,,Clear,300,2011-11-08 11:54:00
7:54 AM,54.0,45.0,72,30.27,10.0,West,5.8,-,N/A,,Clear,260,2011-11-08 12:54:00
8:54 AM,57.0,46.0,67,30.28,10.0,NW,9.2,-,N/A,,Clear,310,2011-11-08 13:54:00
9:54 AM,59.0,46.0,62,30.28,10.0,WNW,8.1,-,N/A,,Clear,300,2011-11-08 14:54:00
10:54 AM,61.0,46.0,58,30.27,10.0,Variable,4.6,-,N/A,,Clear,0,2011-11-08 15:54:00
11:54 AM,64.0,46.9,54,30.24,10.0,NW,5.8,-,N/A,,Overcast,310,2011-11-08 16:54:00
12:54 PM,64.9,46.9,52,30.22,10.0,SW,6.9,-,N/A,,Partly Cloudy,220,2011-11-08 17:54:00
1:54 PM,66.0,46.9,50,30.22,10.0,West,8.1,-,N/A,,Partly Cloudy,280,2011-11-08 18:54:00
2:54 PM,66.2,46.4,49,30.21,10.0,WSW,5.8,-,N/A,,Clear,240,2011-11-08 19:54:00
3:54 PM,64.4,48.2,56,30.21,10.0,West,3.5,-,N/A,,Clear,260,2011-11-08 20:54:00
4:54 PM,60.1,48.0,64,30.23,10.0,West,4.6,-,N/A,,Clear,280,2011-11-08 21:54:00
5:54 PM,60.1,46.9,62,30.24,10.0,West,3.5,-,N/A,,Clear,260,2011-11-08 22:54:00
6:54 PM,60.1,48.0,64,30.25,10.0,WSW,4.6,-,N/A,,Clear,240,2011-11-08 23:54:00
7:54 PM,57.9,48.0,70,30.25,10.0,WSW,5.8,-,N/A,,Clear,250,2011-11-09 00:54:00
8:54 PM,54.0,46.9,77,30.25,10.0,SSW,6.9,-,N/A,,Clear,200,2011-11-09 01:54:00
9:54 PM,53.1,48.0,83,30.25,10.0,SW,6.9,-,N/A,,Clear,230,2011-11-09 02:54:00
10:54 PM,55.0,48.0,77,30.24,10.0,West,8.1,-,N/A,,Clear,260,2011-11-09 03:54:00
11:54 PM,54.0,46.9,77,30.23,10.0,West,8.1,-,N/A,,Clear,260,2011-11-09 04:54:00